Norris Lake Weather Center

Moon Phase Calendar



Norris Lake Water Level
Online Cameras

 


      

Current Conditions in Maynardville
5/22/2022 9:33:51 AM

74°F
Feels Like 75
Clouds
Humidity
80%
Pressure
30.18"
Wind
5.5 mph (W)
Dew Point
67°F
UV Index
4/10 (Moderate)
Visibility
6 mi

Hourly Forecast

Date & Time Sun, May 22
9:00 AM
Sun, May 22
10:00 AM
Sun, May 22
11:00 AM
Sun, May 22
12:00 PM
Sun, May 22
1:00 PM
Sun, May 22
2:00 PM
Sun, May 22
3:00 PM
Sun, May 22
4:00 PM
Sun, May 22
5:00 PM
Sun, May 22
6:00 PM
Sun, May 22
7:00 PM
Sun, May 22
8:00 PM
Sun, May 22
9:00 PM
Sun, May 22
10:00 PM
Sun, May 22
11:00 PM
Mon, May 23
12:00 AM
Mon, May 23
1:00 AM
Mon, May 23
2:00 AM
Mon, May 23
3:00 AM
Mon, May 23
4:00 AM
Mon, May 23
5:00 AM
Mon, May 23
6:00 AM
Mon, May 23
7:00 AM
Mon, May 23
8:00 AM
Mon, May 23
9:00 AM
Mon, May 23
10:00 AM
Mon, May 23
11:00 AM
Mon, May 23
12:00 PM
Mon, May 23
1:00 PM
Mon, May 23
2:00 PM
Mon, May 23
3:00 PM
Mon, May 23
4:00 PM
Mon, May 23
5:00 PM
Mon, May 23
6:00 PM
Mon, May 23
7:00 PM
Mon, May 23
8:00 PM
Mon, May 23
9:00 PM
Mon, May 23
10:00 PM
Mon, May 23
11:00 PM
Tue, May 24
12:00 AM
Tue, May 24
1:00 AM
Tue, May 24
2:00 AM
Tue, May 24
3:00 AM
Tue, May 24
4:00 AM
Tue, May 24
5:00 AM
Tue, May 24
6:00 AM
Tue, May 24
7:00 AM
Tue, May 24
8:00 AM
Condition
Clouds

Clouds

Clouds

Clouds

Clouds

Rain

Rain

Rain

Rain

Rain

Rain

Rain

Rain

Rain

Rain

Rain

Rain

Rain

Rain

Rain

Rain

Rain

Rain

Rain

Rain

Rain

Rain

Rain

Rain

Rain

Rain

Rain

Rain

Rain

Rain

Rain

Clouds

Clouds

Clouds

Clouds

Clouds

Clouds

Clouds

Clouds

Clouds

Clouds

Clouds

Clouds
Temperature 73°F74°F75°F77°F79°F76°F75°F74°F77°F74°F69°F68°F66°F65°F64°F64°F63°F63°F62°F62°F62°F63°F63°F63°F64°F64°F64°F64°F64°F64°F64°F64°F63°F62°F60°F59°F59°F58°F58°F58°F59°F59°F59°F59°F59°F60°F60°F61°F
Feels Like 74°F75°F75°F77°F79°F77°F76°F75°F78°F75°F70°F69°F67°F65°F65°F64°F64°F64°F63°F63°F63°F63°F63°F64°F64°F65°F65°F65°F65°F64°F65°F64°F64°F63°F61°F59°F59°F59°F58°F58°F59°F59°F59°F59°F60°F60°F61°F62°F
Cloudiness 42%45%45%45%49%57%99%92%83%84%87%88%90%95%96%97%98%98%100%100%100%100%100%100%100%100%100%100%100%100%100%100%100%100%100%100%100%100%100%100%100%100%100%100%100%100%100%100%
Visibility 6 mi6 mi6 mi6 mi6 mi6 mi6 mi6 mi6 mi6 mi6 mi6 mi6 mi6 mi6 mi4 mi4 mi6 mi6 mi6 mi4 mi6 mi5 mi6 mi2 mi3 mi3 mi3 mi3 mi5 mi3 mi2 mi2 mi3 mi6 mi6 mi6 mi6 mi6 mi6 mi6 mi6 mi6 mi6 mi6 mi6 mi6 mi6 mi
Precipitation 4%7%8%13%16%36%82%88%88%98%100%100%72%82%92%95%99%100%85%96%100%100%100%100%96%100%100%100%100%100%98%100%100%100%100%100%54%42%35%31%31%23%0%0%2%2%7%7%
Humidity 82%80%75%68%62%73%79%81%70%81%92%94%96%98%99%99%99%99%99%99%99%99%99%99%99%99%99%99%98%98%98%98%99%99%99%99%99%99%99%98%98%98%98%98%97%97%97%96%
Dew Point 67°F67°F66°F65°F65°F67°F67°F67°F66°F67°F66°F66°F65°F64°F63°F63°F63°F62°F62°F62°F62°F62°F62°F62°F63°F63°F63°F63°F63°F63°F63°F63°F62°F62°F60°F58°F58°F58°F57°F57°F58°F58°F58°F58°F58°F59°F59°F60°F
Pressure 30.18"30.18"30.18"30.18"30.15"30.15"30.15"30.15"30.12"30.12"30.15"30.15"30.15"30.18"30.18"30.18"30.18"30.18"30.15"30.15"30.15"30.15"30.15"30.15"30.15"30.15"30.15"30.12"30.12"30.09"30.09"30.06"30.06"30.06"30.09"30.09"30.09"30.09"30.09"30.09"30.09"30.06"30.03"30.03"30.03"30.06"30.06"30.06"
Wind Speed 5.3 mph5.5 mph5.2 mph4.4 mph4.4 mph4.5 mph5.7 mph5.1 mph5.7 mph7 mph7.2 mph7.9 mph6.2 mph3.8 mph3.3 mph2.2 mph3.5 mph2.8 mph2.9 mph3.1 mph1.7 mph1.8 mph1.6 mph1.8 mph2 mph1.5 mph1.2 mph1.2 mph1.2 mph1.3 mph1.1 mph1.4 mph1.7 mph2.6 mph3.9 mph3.5 mph3.2 mph3.2 mph3.1 mph2.7 mph2.8 mph2.6 mph2.6 mph2 mph1.7 mph1.2 mph2.1 mph1.7 mph
Wind
Direction
234°
SW
268°
W
281°
W
281°
W
274°
W
305°
NW
335°
NNW
344°
NNW
324°
NW
326°
NW
342°
NNW
349°
N
348°
NNW
329°
NNW
321°
NW
293°
WNW

N
14°
NNE
11°
N
20°
NNE
15°
NNE
10°
N
37°
NE
60°
ENE
66°
ENE
84°
E
106°
ESE
104°
ESE
81°
E
54°
NE
33°
NNE
18°
NNE

N
344°
NNW
347°
NNW
339°
NNW
343°
NNW
356°
N

N
16°
NNE
20°
NNE
39°
NE
55°
NE
45°
NE
37°
NE
13°
NNE
25°
NNE
73°
ENE

Daily Forecast

Date High Low Precip. Humidity
Today
May 22

Rain
79 °F
64 °F
100%
62%
Monday
May 23

Rain
64 °F
58 °F
100%
98%
Tuesday
May 24

Rain
70 °F
58 °F
98%
79%
Wednesday
May 25

Rain
84 °F
60 °F
93%
47%
Thursday
May 26

Rain
65 °F
57 °F
100%
97%
Friday
May 27

Clear
79 °F
53 °F
8%
38%
Saturday
May 28

Clear
83 °F
56 °F
0%
41%
Sunday
May 29

Clouds
84 °F
60 °F
0%
38%
Monday
May 30

Clear
88 °F
62 °F
0%
41%
Tuesday
May 31

Clouds
90 °F
66 °F
0%
41%
Wednesday
Jun 1

Rain
84 °F
67 °F
84%
60%
Thursday
Jun 2

Rain
77 °F
63 °F
94%
68%
Friday
Jun 3

Clouds
84 °F
57 °F
2%
41%
Saturday
Jun 4

Clouds
89 °F
65 °F
2%
47%
Sunday
Jun 5

Rain
86 °F
72 °F
39%
52%
Monday
Jun 6

Clouds
95 °F
70 °F
17%
38%

Temperature 8-14 Day Outlook



Precipitation 8-14 Day Outlook




Quick Links
Norris Lake News
Norris Lake Photos
Norris Lake Videos




About Us
Contact Us
Site Map
Search Site
Advertise With Us
   
www.NorrisLakeNews.com
THE NORRIS LAKE WEBSITE

Copyright 2022, Lakes Online
Privacy    |    Legal